This demonstration page uses our WeatherBlox Daily Observations layout. Learn more.

Left ArrowRight Arrow

Hourly Observations for May 16, 2021

Temp ( °F °C ) Dew Point ( °F °C ) Humidity (%) Winds ( mph kmh ) Pressure ( in mb ) Visibility ( mi km ) Precip ( " mm )
12:15 am 00:15 Cloudy with Nearby Thunderstorms 64 18 58 14.7 81 81 ESE 12 19 29.91 1013 10 16 N/A
12:35 am 00:35 Partly Cloudy with Nearby Thunderstorms 64 17.5 58 14.7 84 84 E 8 13 29.94 1014 10 16 N/A
12:55 am 00:55 Mostly Cloudy 63 17.2 59 14.8 86 86 ESE 8 13 29.94 1014 10 16 N/A
1:15 am 01:15 Mostly Cloudy 62 16.7 59 14.9 89 89 E 9 15 29.94 1014 10 16 N/A
1:35 am 01:35 Partly Cloudy 62 16.5 59 14.8 90 90 E 8 13 29.94 1014 10 16 N/A
1:55 am 01:55 Mostly Cloudy 62 16.5 59 15 91 91 ESE 7 11 29.94 1014 10 16 N/A
2:15 am 02:15 Cloudy 62 16.5 59 14.9 90 90 ESE 9 15 29.93 1013 10 16 N/A
2:35 am 02:35 Cloudy 61 16.3 59 14.9 91 91 E 9 15 29.92 1013 10 16 N/A
2:55 am 02:55 Cloudy 61 16.3 59 14.8 91 91 E 9 15 29.92 1013 10 16 N/A
3:15 am 03:15 Cloudy 61 16.3 59 14.8 91 91 E 12 19 29.92 1013 10 16 N/A
3:35 am 03:35 Cloudy with Light Rain 61 16.3 59 15 92 92 ENE 12 19 29.91 1013 10 16 N/A
3:55 am 03:55 Cloudy with Nearby Thunderstorms 61 16.3 59 15 92 92 E 10 17 29.92 1013 10 16 N/A
4:15 am 04:15 Cloudy with Light Rain 61 16.3 59 15 92 92 N N/A 29.94 1014 10 16 N/A
4:35 am 04:35 Cloudy with Thunderstorms 61 16.3 59 15.1 93 93 N N/A 29.94 1014 3 5 0.05 1.27
4:55 am 04:55 Cloudy with Heavy Thunderstorms 61 16 59 15.2 95 95 W 3 6 29.94 1014 3 4 0.21 5.33
5:15 am 05:15 Cloudy with Heavy Rain 60 15.8 59 15.1 96 96 E 10 17 29.92 1013 1 1 0.39 9.91
5:35 am 05:35 Cloudy with Nearby Thunderstorms 60 15.6 59 15 96 96 E 12 19 29.92 1013 3 5 0.57 14.48
5:55 am 05:55 Cloudy with Nearby Thunderstorms 60 15.6 59 15 96 96 E 12 19 29.92 1013 4 6 0.65 16.51
6:15 am 06:15 Cloudy with Rain 60 15.5 59 15 97 97 SE 9 15 29.94 1014 5 8 0.05 1.27
6:35 am 06:35 Cloudy with Heavy Rain 59 15.2 58 14.6 96 96 S 6 9 29.96 1014 4 6 0.19 4.83
6:55 am 06:55 Cloudy with Rain 59 15.1 58 14.5 96 96 E 6 9 29.95 1014 4 6 0.36 9.14
7:15 am 07:15 Cloudy with Rain 59 15 58 14.5 97 97 ESE 14 22 29.92 1013 5 8 0.07 1.78
7:35 am 07:35 Cloudy with Light Rain 59 15.1 58 14.6 97 97 ESE 14 22 29.93 1013 7 11 0.12 3.05
7:55 am 07:55 Cloudy with Light Rain 59 15 58 14.5 97 97 ESE 14 22 29.92 1013 10 16 0.13 3.30
8:15 am 08:15 Cloudy 59 15 58 14.4 96 96 ESE 9 15 29.93 1014 10 16 N/A
8:35 am 08:35 Cloudy with Light Rain 59 15.1 58 14.5 96 96 ESE 8 13 29.93 1013 10 16 N/A
8:55 am 08:55 Cloudy with Drizzle 59 15.1 58 14.5 96 96 SE 9 15 29.93 1013 10 16 N/A
9:15 am 09:15 Cloudy 60 15.3 58 14.7 96 96 SSE 12 19 29.93 1013 10 16 N/A
9:35 am 09:35 Cloudy 60 15.3 58 14.5 95 95 SSE 12 19 29.94 1014 10 16 N/A
9:55 am 09:55 Cloudy with Light Rain 60 15.4 58 14.5 94 94 S 9 15 29.95 1014 10 16 N/A
10:15 am 10:15 Cloudy 60 15.8 58 14.7 93 93 SSE 6 9 29.94 1014 10 16 N/A
10:35 am 10:35 Mostly Cloudy 61 16.3 59 14.8 91 91 SSE 8 13 29.94 1014 10 16 N/A
10:55 am 10:55 Cloudy 63 17.2 59 15 87 87 S 13 20 29.94 1014 10 16 N/A
11:15 am 11:15 Cloudy 63 17 58 14.7 86 86 S 9 15 29.94 1014 10 16 N/A
11:35 am 11:35 Cloudy 64 18 59 15 83 83 S 10 17 29.93 1014 10 16 N/A
11:55 am 11:55 Cloudy 64 17.7 58 14.3 81 81 SE 5 7 29.94 1014 10 16 N/A
12:15 pm 12:15 Cloudy 64 17.8 58 14.5 81 81 SE 8 13 29.93 1013 10 16 N/A
12:35 pm 12:35 Cloudy 65 18.5 59 14.8 79 79 SE 8 13 29.90 1013 10 16 N/A
12:55 pm 12:55 Cloudy 67 19.4 60 15.6 79 79 SE 10 17 29.89 1012 10 16 N/A
1:15 pm 13:15 Partly Cloudy 68 20 61 15.9 77 77 SE 10 17 29.88 1012 10 16 N/A
1:35 pm 13:35 Partly Cloudy 69 20.6 60 15.7 74 74 SE 14 22 29.87 1012 10 16 N/A
1:55 pm 13:55 Mostly Cloudy 71 21.5 60 15.8 70 70 SSE 14 22 29.85 1011 10 16 N/A
2:15 pm 14:15 Mostly Cloudy 72 22.1 59 14.8 63 63 SSE 14 22 29.84 1011 10 16 N/A
2:35 pm 14:35 Cloudy 71 21.9 59 14.9 65 65 SE 10 17 29.84 1011 10 16 N/A
2:55 pm 14:55 Cloudy 73 22.9 59 14.9 61 61 SE 6 9 29.84 1011 10 16 N/A
3:15 pm 15:15 Cloudy 71 21.5 58 14.3 64 64 SE 8 13 29.85 1011 10 16 N/A
3:35 pm 15:35 Mostly Cloudy 71 21.8 58 14.6 64 64 ESE 7 11 29.84 1011 10 16 N/A
3:55 pm 15:55 Mostly Cloudy 71 21.8 59 15 65 65 E 15 24 29.84 1011 10 16 N/A
4:15 pm 16:15 Cloudy 69 20.7 60 15.6 73 73 E 14 22 29.85 1011 10 16 N/A
4:35 pm 16:35 Partly Cloudy 70 20.9 61 16.3 75 75 E 16 26 29.84 1010 10 16 N/A
4:55 pm 16:55 Sunny 71 21.5 62 16.5 73 73 E 14 22 29.84 1010 10 16 N/A
5:15 pm 17:15 Mostly Cloudy 71 21.6 62 16.4 72 72 E 13 20 29.83 1010 10 16 N/A
5:35 pm 17:35 Mostly Cloudy 71 21.4 61 16.3 73 73 E 13 20 29.84 1010 10 16 N/A
5:55 pm 17:55 Cloudy 70 21.3 61 16.2 73 73 E 13 20 29.84 1010 10 16 N/A
6:15 pm 18:15 Cloudy 70 21 61 15.9 73 73 E 12 19 29.84 1010 10 16 N/A
6:35 pm 18:35 Cloudy 69 20.7 61 16 75 75 E 12 19 29.84 1011 10 16 N/A
6:55 pm 18:55 Cloudy 69 20.5 61 16.3 77 77 E 15 24 29.84 1011 10 16 N/A
7:15 pm 19:15 Partly Cloudy with Nearby Thunderstorms 69 20.4 61 16.3 77 77 E 16 26 29.84 1011 10 16 N/A
7:35 pm 19:35 Sunny with Nearby Thunderstorms 68 19.9 61 16 78 78 E 16 26 29.85 1011 10 16 N/A
7:55 pm 19:55 Partly Cloudy 67 19.2 60 15.7 80 80 E 14 22 29.85 1011 10 16 N/A
8:15 pm 20:15 Partly Cloudy 66 18.7 60 15.5 82 82 E 15 24 29.86 1011 10 16 N/A
8:35 pm 20:35 Partly Cloudy 65 18.2 61 15.9 87 87 E 18 30 29.86 1011 10 16 N/A
8:55 pm 20:55 Partly Cloudy 64 17.8 60 15.7 88 88 ESE 14 22 29.88 1012 10 16 N/A
9:15 pm 21:15 Mostly Cloudy with Drizzle 63 17.1 60 15.5 90 90 E 16 26 29.89 1012 10 16 N/A
9:35 pm 21:35 Partly Cloudy 62 16.7 60 15.5 93 93 E 13 20 29.90 1013 10 16 N/A
9:55 pm 21:55 Partly Cloudy 62 16.4 59 15.2 93 93 E 13 20 29.92 1013 10 16 N/A
10:15 pm 22:15 Partly Cloudy 61 16 58 14.7 92 92 ESE 14 22 29.92 1013 10 16 N/A
10:35 pm 22:35 Mostly Cloudy 60 15.6 58 14.5 93 93 ESE 9 15 29.93 1014 10 16 N/A
10:55 pm 22:55 Cloudy 60 15.6 58 14.7 94 94 E 12 19 29.93 1014 10 16 N/A
11:15 pm 23:15 Cloudy 60 15.6 58 14.6 94 94 E 13 20 29.94 1014 10 16 N/A
11:35 pm 23:35 Cloudy 60 15.6 58 14.7 94 94 E 14 22 29.94 1014 10 16 N/A
11:55 pm 23:55 Cloudy 60 15.5 58 14.6 94 94 ESE 10 17 29.94 1014 7 11 N/A

Powered by AerisWeather